DateTimeUTC,F1_A11,F1_S11,BsB_S11,BsG_S11,BsR_S11,BbsB_S11,BbsG_S11,BbsR_S11,BaB_A11,BaG_A11,BaR_A11,Tu_S11,T_S11,Uu_S11,U_S11,P_S11,T1_A11
2021-07-27T16:00:00Z,00000200,20000000,,,,,,,-000.33,0000.16,-000.03,20.3,26.6,15.4,10.5,0686.0,31.2
2021-07-27T16:01:00Z,00000200,20000000,,,,,,,-000.13,-000.65,-000.27,20.3,26.6,15.4,10.5,0686.0,31.1
2021-07-27T16:02:00Z,00000200,20000000,,,,,,,-000.06,0000.07,0000.23,20.3,26.6,15.4,10.5,0686.0,31.2
2021-07-27T16:03:00Z,00000200,60000000,,,,,,,0003.87,0003.21,0002.43,20.3,26.6,15.4,10.5,0686.0,31.1
2021-07-27T16:04:00Z,00000200,40000000,0026.69,0018.55,0011.41,0003.34,0002.25,0002.01,0004.91,0004.64,0003.42,20.3,26.4,15.4,10.7,0686.9,31.2
2021-07-27T16:05:00Z,00000200,00000000,0026.07,0017.34,0010.93,0003.18,0002.27,0001.66,0004.54,0004.54,0003.26,20.4,26.4,15.5,10.8,0687.0,31.1
2021-07-27T16:06:00Z,00000200,00000000,0025.79,0018.10,0010.84,0002.59,0002.54,0001.47,0004.56,0003.94,0003.34,20.4,26.4,15.5,10.8,0687.0,31.1
2021-07-27T16:07:00Z,00000200,00000000,0026.40,0018.38,0011.40,0002.73,0002.20,0001.96,0005.10,0004.54,0003.25,20.4,26.4,15.5,10.8,0687.0,31.2
2021-07-27T16:08:00Z,00000200,00000000,0025.81,0017.97,0011.36,0002.32,0002.64,0002.18,0005.06,0004.64,0003.52,20.4,26.4,15.6,10.9,0687.0,31.2
2021-07-27T16:09:00Z,00000200,00000000,0027.16,0019.23,0011.41,0003.47,0002.30,0001.48,0004.63,0004.11,0003.37,20.4,26.4,15.7,10.9,0687.1,31.2
2021-07-27T16:10:00Z,00000200,00000000,0026.71,0018.85,0011.52,0002.99,0002.39,0002.10,0005.09,0004.71,0003.56,20.4,26.4,15.6,10.9,0687.0,31.2
2021-07-27T16:11:00Z,00000200,00000000,0025.88,0018.58,0011.16,0002.84,0002.31,0002.08,0004.81,0004.38,0003.49,20.4,26.4,15.7,10.9,0687.0,31.1
2021-07-27T16:12:00Z,00000200,00000000,0027.05,0018.82,0011.43,0003.81,0002.46,0001.92,0004.72,0004.47,0003.22,20.4,26.4,15.6,10.9,0687.0,31.2
2021-07-27T16:13:00Z,00000200,00000000,0026.24,0018.89,0011.14,0003.91,0002.75,0001.71,0005.07,0004.58,0003.49,20.4,26.4,15.7,10.9,0687.0,31.2
2021-07-27T16:14:00Z,00000200,00000000,0025.50,0018.98,0011.37,0002.52,0002.63,0002.14,0005.04,0004.53,0003.56,20.4,26.4,15.7,11.0,0687.0,31.2
2021-07-27T16:15:00Z,00000200,00000000,0026.48,0018.75,0011.03,0003.33,0002.50,0002.25,0004.80,0004.23,0003.16,20.4,26.4,15.8,11.0,0687.0,31.2
2021-07-27T16:16:00Z,00000200,00000000,0026.09,0018.81,0011.35,0002.92,0002.35,0002.14,0004.83,0004.59,0003.55,20.4,26.4,15.8,11.0,0687.0,31.2
2021-07-27T16:17:00Z,00000200,00000000,0027.01,0019.34,0011.53,0002.98,0002.22,0001.82,0005.13,0004.65,0003.84,20.4,26.4,15.9,11.1,0687.0,31.1
2021-07-27T16:18:00Z,00000200,00000000,0026.95,0019.14,0011.41,0002.69,0002.49,0001.97,0004.84,0004.22,0002.99,20.4,26.4,15.9,11.1,0687.0,31.1
2021-07-27T16:19:00Z,00000200,00000000,0027.39,0018.83,0011.33,0003.30,0002.36,0001.85,0005.13,0004.79,0004.20,20.4,26.4,15.8,11.0,0687.0,31.1
2021-07-27T16:20:00Z,00000200,00000000,0027.40,0018.57,0010.94,0002.48,0002.43,0001.40,0004.66,0004.19,0002.76,20.4,26.4,15.9,11.1,0687.0,31.1
2021-07-27T16:21:00Z,00000200,00000000,0027.15,0018.38,0010.81,0002.87,0002.46,0002.25,0004.85,0004.50,0003.58,20.4,26.3,15.9,11.1,0687.0,31.2
2021-07-27T16:22:00Z,00000200,00000000,0027.13,0019.93,0012.22,0003.43,0002.35,0002.19,0005.12,0004.62,0003.50,20.4,26.4,15.8,11.0,0687.0,31.2
2021-07-27T16:23:00Z,00000200,00000000,0028.26,0020.29,0012.01,0002.88,0002.33,0001.94,0005.45,0004.80,0003.91,20.4,26.4,15.9,11.1,0687.0,31.2
2021-07-27T16:24:00Z,00000200,00000000,0028.66,0019.75,0011.85,0003.21,0002.51,0002.19,0004.92,0004.33,0003.33,20.4,26.4,15.8,11.0,0687.0,31.1
2021-07-27T16:25:00Z,00000200,00000000,0029.11,0020.34,0012.57,0002.79,0002.49,0001.97,0004.84,0004.67,0003.42,20.4,26.4,15.8,11.1,0687.0,31.2
2021-07-27T16:26:00Z,00000200,00000000,0028.91,0021.00,0011.97,0003.67,0002.48,0001.96,0005.04,0004.60,0003.26,20.4,26.4,15.8,11.1,0687.0,31.2
2021-07-27T16:27:00Z,00000200,00000000,0029.15,0020.11,0011.89,0003.10,0002.60,0001.95,0005.59,0004.91,0004.34,20.4,26.4,15.7,11.0,0687.0,31.2
2021-07-27T16:28:00Z,00000200,00000000,0029.48,0020.71,0012.58,0002.99,0002.91,0002.34,0005.23,0004.91,0003.75,20.4,26.4,15.9,11.1,0687.0,31.1
2021-07-27T16:29:00Z,00000200,00000000,0029.41,0021.03,0012.38,0003.71,0002.49,0001.96,0005.17,0005.17,0003.49,20.4,26.4,15.7,11.0,0687.0,31.2
2021-07-27T16:30:00Z,00000200,00000000,0030.28,0021.73,0012.88,0002.81,0002.86,0002.19,0005.45,0004.61,0003.85,20.4,26.4,15.8,11.0,0687.0,31.2
2021-07-27T16:31:00Z,00000200,00000000,0030.56,0021.24,0012.54,0002.42,0002.78,0002.11,0005.63,0004.91,0003.78,20.4,26.4,15.8,11.1,0687.0,31.1
2021-07-27T16:32:00Z,00000200,00000000,0030.44,0022.62,0013.33,0003.42,0002.91,0002.75,0005.47,0005.13,0003.76,20.4,26.4,15.8,11.1,0687.0,31.2
2021-07-27T16:33:00Z,00000200,00000000,0029.45,0021.00,0012.53,0003.15,0002.67,0002.19,0005.25,0005.04,0003.88,20.4,26.4,15.9,11.1,0687.1,31.2
2021-07-27T16:34:00Z,00000200,00000000,0027.84,0019.60,0011.32,0003.26,0002.45,0002.21,0004.89,0004.42,0003.52,20.4,26.4,15.8,11.1,0687.0,31.2
2021-07-27T16:35:00Z,00000200,00000000,0027.06,0018.81,0010.90,0002.87,0002.81,0001.79,0005.30,0004.53,0003.32,20.4,26.4,15.8,11.1,0687.0,31.2
2021-07-27T16:36:00Z,00000200,00000000,0028.74,0019.16,0011.56,0003.31,0002.40,0002.27,0005.00,0004.66,0003.70,20.4,26.4,15.8,11.1,0687.0,31.1
2021-07-27T16:37:00Z,00000200,00000000,0028.26,0019.80,0011.39,0002.59,0002.41,0001.66,0005.11,0005.03,0003.68,20.5,26.4,15.8,11.1,0687.1,31.2
2021-07-27T16:38:00Z,00000200,00000000,0027.86,0019.63,0011.39,0002.56,0002.46,0002.29,0005.29,0004.18,0003.35,20.5,26.4,15.9,11.1,0687.0,31.2
2021-07-27T16:39:00Z,00000200,00000000,0028.10,0019.87,0011.82,0002.69,0002.31,0002.12,0005.21,0004.83,0003.93,20.5,26.4,15.9,11.1,0687.1,31.2
2021-07-27T16:40:00Z,00000200,00000000,0028.49,0020.95,0012.57,0002.78,0002.69,0001.82,0004.99,0004.96,0003.47,20.5,26.4,15.9,11.2,0687.1,31.2
2021-07-27T16:41:00Z,00000200,00000000,0028.66,0020.70,0012.47,0003.11,0002.55,0002.09,0005.36,0004.82,0003.73,20.5,26.4,15.9,11.1,0687.1,31.2
2021-07-27T16:42:00Z,00000200,00000000,0028.76,0020.71,0012.63,0003.75,0002.39,0002.21,0005.15,0004.82,0003.75,20.5,26.4,15.9,11.1,0687.1,31.2
2021-07-27T16:43:00Z,00000200,00000000,0028.06,0021.02,0013.01,0002.35,0002.56,0002.11,0005.35,0004.95,0003.53,20.5,26.4,15.9,11.1,0687.1,31.2
2021-07-27T16:44:00Z,00000200,00000000,0030.42,0021.98,0013.60,0002.95,0002.62,0002.05,0005.37,0004.72,0003.86,20.5,26.4,16.0,11.2,0687.1,31.2
2021-07-27T16:45:00Z,00000200,00000000,0030.29,0021.84,0013.05,0003.71,0002.61,0002.17,0005.62,0004.76,0003.93,20.5,26.4,15.9,11.1,0687.1,31.2
2021-07-27T16:46:00Z,00000200,00000000,0031.15,0023.27,0013.87,0003.45,0002.85,0002.30,0005.80,0005.33,0003.95,20.5,26.4,15.9,11.2,0687.1,31.2
2021-07-27T16:47:00Z,00000200,00000000,0030.79,0022.26,0013.73,0002.90,0002.59,0002.75,0005.36,0005.42,0004.07,20.5,26.4,15.9,11.2,0687.1,31.2
2021-07-27T16:48:00Z,00000200,00000000,0030.97,0021.53,0012.81,0002.94,0002.82,0002.44,0005.18,0004.69,0003.36,20.5,26.4,15.9,11.1,0687.1,31.2
2021-07-27T16:49:00Z,00000200,00000000,0029.85,0021.06,0012.43,0003.14,0002.23,0001.94,0005.57,0004.64,0004.17,20.5,26.4,15.8,11.1,0687.1,31.2
2021-07-27T16:50:00Z,00000200,00000000,0029.57,0021.68,0013.01,0002.67,0002.86,0002.30,0005.07,0005.12,0003.85,20.5,26.4,15.9,11.2,0687.1,31.2
2021-07-27T16:51:00Z,00000200,00000000,0028.54,0020.90,0013.08,0003.43,0002.62,0002.12,0005.32,0004.86,0003.53,20.5,26.4,15.8,11.1,0687.1,31.2
2021-07-27T16:52:00Z,00000200,00000000,0030.19,0020.45,0012.58,0003.42,0002.77,0001.97,0005.28,0004.60,0003.76,20.5,26.4,15.8,11.1,0687.1,31.2
2021-07-27T16:53:00Z,00000200,00000000,0029.60,0021.35,0013.12,0003.01,0002.52,0002.24,0005.67,0004.88,0003.53,20.5,26.4,15.9,11.1,0687.1,31.1
2021-07-27T16:54:00Z,00000200,00000000,0029.73,0021.40,0012.90,0003.13,0002.40,0001.88,0004.82,0004.59,0003.98,20.5,26.4,15.7,11.0,0687.1,31.2
2021-07-27T16:55:00Z,00000200,00000000,0029.85,0021.93,0013.40,0003.45,0002.52,0002.21,0004.99,0004.91,0003.55,20.5,26.4,15.8,11.1,0687.2,31.2
2021-07-27T16:56:00Z,00000200,00000000,0031.21,0022.37,0013.69,0003.12,0003.03,0002.12,0006.00,0005.15,0003.95,20.5,26.4,15.8,11.1,0687.2,31.1
2021-07-27T16:57:00Z,00000200,40000000,,,,,,,0001.14,0001.72,0001.07,20.5,26.4,16.1,11.3,0687.0,31.2
2021-07-27T16:58:00Z,00000200,60000000,,,,,,,0000.12,-000.60,-000.31,20.3,26.5,16.0,10.9,0686.2,31.2
2021-07-27T16:59:00Z,00000200,20000000,,,,,,,-000.02,-000.18,0000.11,20.3,26.6,15.9,10.9,0686.2,31.1
